When you browse on this site, cookies collect data to enhance your experience and personalize the content and advertising you see.
Visit our Privacy Policy to learn more. By continuing to use the site, you agree to this use of cookies and data.
  • In Hungary
  • List of Countries
  • For 7 days
  • Water Temperature
  • Satellite Maps
  • Weather Map
  • News
  • Weather Widgets
  • user-avatar
    Login

    Hourly Weather Mishkino

    Today, 24 January, Thursday

    Time Temperature Precipitation Wind Pressure Humidity
    00:00 -26°C° 0 mm 2 mps 756 mmHg 98%
    01:00 -26°C° 0 mm 2 mps 756 mmHg 98%
    02:00 -26°C° 0 mm 2 mps 757 mmHg 98%
    03:00 -26°C° 0 mm 2 mps 757 mmHg 98%
    04:00 -26°C° 0 mm 2 mps 757 mmHg 98%
    05:00 -26°C° 0 mm 2 mps 758 mmHg 98%
    06:00 -26°C° 0 mm 2 mps 758 mmHg 98%
    07:00 -26°C° 0 mm 2 mps 758 mmHg 98%
    08:00 -26°C° 0 mm 2 mps 759 mmHg 98%
    09:00 -27°C° 0 mm 3 mps 759 mmHg 98%
    10:00 -27°C° 0 mm 3 mps 759 mmHg 98%
    11:00 -26°C° 0 mm 3 mps 759 mmHg 97%
    12:00 -25°C° 0 mm 3 mps 759 mmHg 96%
    13:00 -24°C° 0 mm 3 mps 759 mmHg 96%
    14:00 -24°C° 0 mm 3 mps 759 mmHg 96%
    15:00 -24°C° 0 mm 3 mps 759 mmHg 96%
    16:00 -24°C° 0 mm 3 mps 759 mmHg 97%
    17:00 -25°C° 0 mm 4 mps 759 mmHg 96%
    18:00 -25°C° 0 mm 4 mps 759 mmHg 96%
    19:00 -25°C° 0 mm 4 mps 758 mmHg 96%
    20:00 -24°C° 0 mm 4 mps 758 mmHg 94%
    21:00 -24°C° 0 mm 5 mps 757 mmHg 93%
    22:00 -24°C° 0 mm 5 mps 756 mmHg 92%
    23:00 -22°C° 0.1 mm 5 mps 756 mmHg 92%

    Tomorrow, 25 January, Friday

    Time Temperature Precipitation Wind Pressure Humidity
    00:00 -22°C° 0.1 mm 6 mps 755 mmHg 92%
    01:00 -21°C° 0.1 mm 6 mps 754 mmHg 92%
    02:00 -20°C° 0.4 mm 6 mps 753 mmHg 92%
    03:00 -18°C° 0.4 mm 6 mps 752 mmHg 92%
    04:00 -18°C° 0.4 mm 7 mps 751 mmHg 92%
    05:00 -16°C° 0.3 mm 6 mps 750 mmHg 92%
    06:00 -16°C° 0.3 mm 6 mps 749 mmHg 92%
    07:00 -15°C° 0.3 mm 6 mps 748 mmHg 92%
    08:00 -15°C° 0.3 mm 6 mps 748 mmHg 92%
    09:00 -15°C° 0.3 mm 6 mps 748 mmHg 92%
    10:00 -14°C° 0.3 mm 5 mps 747 mmHg 92%
    11:00 -14°C° 0.3 mm 5 mps 747 mmHg 92%
    12:00 -14°C° 0.3 mm 5 mps 747 mmHg 92%
    13:00 -13°C° 0.3 mm 5 mps 747 mmHg 91%
    14:00 -14°C° 0.1 mm 5 mps 747 mmHg 91%
    15:00 -15°C° 0.1 mm 5 mps 748 mmHg 90%
    16:00 -17°C° 0.1 mm 5 mps 748 mmHg 90%
    17:00 -18°C° 0 mm 4 mps 749 mmHg 92%
    18:00 -19°C° 0 mm 4 mps 750 mmHg 94%
    19:00 -22°C° 0 mm 4 mps 750 mmHg 96%
    20:00 -23°C° 0 mm 4 mps 751 mmHg 97%
    21:00 -23°C° 0 mm 4 mps 752 mmHg 97%
    22:00 -24°C° 0 mm 4 mps 753 mmHg 97%
    23:00 -25°C° 0 mm 4 mps 753 mmHg 98%

    Day after tomorrow, 26 January, Saturday

    Time Temperature Precipitation Wind Pressure Humidity
    00:00 -25°C° 0 mm 3 mps 754 mmHg 98%
    01:00 -26°C° 0 mm 3 mps 755 mmHg 98%
    02:00 -27°C° 0 mm 3 mps 755 mmHg 98%
    03:00 -29°C° 0 mm 3 mps 756 mmHg 99%
    04:00 -30°C° 0 mm 3 mps 756 mmHg 99%
    05:00 -28°C° 0 mm 2 mps 757 mmHg 99%
    06:00 -29°C° 0 mm 2 mps 758 mmHg 99%
    07:00 -29°C° 0 mm 2 mps 758 mmHg 99%
    08:00 -29°C° 0 mm 2 mps 759 mmHg 99%
    09:00 -29°C° 0 mm 2 mps 759 mmHg 98%
    10:00 -25°C° 0 mm 1 mps 760 mmHg 98%
    11:00 -24°C° 0 mm 1 mps 760 mmHg 97%
    12:00 -23°C° 0 mm 1 mps 760 mmHg 97%
    13:00 -22°C° 0 mm 1 mps 761 mmHg 96%
    14:00 -25°C° 0 mm 2 mps 761 mmHg 96%
    15:00 -26°C° 0 mm 2 mps 761 mmHg 97%
    16:00 -26°C° 0 mm 2 mps 761 mmHg 97%
    17:00 -27°C° 0 mm 2 mps 761 mmHg 97%
    18:00 -25°C° 0 mm 1 mps 761 mmHg 97%
    19:00 -25°C° 0 mm 1 mps 762 mmHg 97%
    20:00 -25°C° 0 mm 1 mps 762 mmHg 96%
    21:00 -25°C° 0 mm 1 mps 762 mmHg 95%
    22:00 -25°C° 0 mm 1 mps 762 mmHg 94%
    23:00 -25°C° 0 mm 1 mps 762 mmHg 93%

    27 January, Sunday

    Time Temperature Precipitation Wind Pressure Humidity
    00:00 -24°C° 0 mm 1 mps 762 mmHg 92%
    01:00 -24°C° 0 mm 1 mps 762 mmHg 91%
    02:00 -23°C° 0 mm 1 mps 762 mmHg 89%
    03:00 -23°C° 0 mm 1 mps 761 mmHg 87%
    04:00 -25°C° 0 mm 2 mps 761 mmHg 84%
    05:00 -25°C° 0 mm 2 mps 761 mmHg 83%
    06:00 -24°C° 0 mm 2 mps 761 mmHg 81%
    07:00 -23°C° 0 mm 2 mps 761 mmHg 79%
    08:00 -21°C° 0 mm 2 mps 760 mmHg 79%
    09:00 -20°C° 0 mm 2 mps 760 mmHg 79%
    10:00 -21°C° 0 mm 3 mps 760 mmHg 78%
    11:00 -19°C° 0 mm 3 mps 759 mmHg 77%
    12:00 -17°C° 0 mm 3 mps 758 mmHg 76%
    13:00 -16°C° 0 mm 3 mps 758 mmHg 75%
    14:00 -16°C° 0 mm 3 mps 757 mmHg 77%
    15:00 -16°C° 0 mm 3 mps 757 mmHg 79%
    16:00 -16°C° 0 mm 3 mps 756 mmHg 81%
    17:00 -15°C° 0 mm 3 mps 756 mmHg 80%
    18:00 -16°C° 0 mm 4 mps 755 mmHg 79%
    19:00 -15°C° 0 mm 4 mps 755 mmHg 78%
    20:00 -15°C° 0 mm 4 mps 755 mmHg 78%
    21:00 -15°C° 0 mm 4 mps 754 mmHg 77%
    22:00 -15°C° 0 mm 4 mps 754 mmHg 77%
    23:00 -15°C° 0 mm 4 mps 754 mmHg 76%

    28 January, Monday

    Time Temperature Precipitation Wind Pressure Humidity
    00:00 -15°C° 0 mm 5 mps 753 mmHg 75%
    01:00 -17°C° 0 mm 5 mps 753 mmHg 74%
    02:00 -17°C° 0 mm 5 mps 752 mmHg 74%
    03:00 -17°C° 0 mm 5 mps 752 mmHg 73%
    04:00 -17°C° 0 mm 5 mps 751 mmHg 72%
    05:00 -17°C° 0 mm 5 mps 751 mmHg 73%
    06:00 -17°C° 0 mm 5 mps 750 mmHg 73%
    07:00 -18°C° 0 mm 5 mps 750 mmHg 73%
    08:00 -17°C° 0 mm 5 mps 749 mmHg 73%
    09:00 -15°C° 0 mm 5 mps 749 mmHg 73%
    10:00 -14°C° 0 mm 5 mps 748 mmHg 72%
    11:00 -13°C° 0 mm 5 mps 748 mmHg 74%
    12:00 -12°C° 0 mm 5 mps 747 mmHg 75%
    13:00 -11°C° 0 mm 5 mps 747 mmHg 76%
    14:00 -10°C° 0.1 mm 5 mps 746 mmHg 79%
    15:00 -10°C° 0.1 mm 5 mps 746 mmHg 82%
    16:00 -8°C° 0.1 mm 5 mps 745 mmHg 84%
    17:00 -10°C° 0.6 mm 5 mps 745 mmHg 87%
    18:00 -10°C° 0.6 mm 5 mps 744 mmHg 91%
    19:00 -10°C° 0.6 mm 6 mps 744 mmHg 94%
    20:00 -10°C° 0.5 mm 6 mps 744 mmHg 93%
    21:00 -10°C° 0.5 mm 6 mps 744 mmHg 93%
    22:00 -11°C° 0.5 mm 6 mps 744 mmHg 93%
    23:00 -11°C° 0.1 mm 5 mps 744 mmHg 93%

    29 January, Tuesday

    Time Temperature Precipitation Wind Pressure Humidity
    00:00 -11°C° 0.1 mm 5 mps 744 mmHg 93%
    01:00 -12°C° 0.1 mm 5 mps 744 mmHg 93%
    02:00 -12°C° 0.1 mm 5 mps 744 mmHg 94%
    03:00 -11°C° 0.1 mm 4 mps 744 mmHg 94%
    04:00 -11°C° 0.1 mm 4 mps 744 mmHg 94%
    05:00 -12°C° 0.1 mm 4 mps 744 mmHg 95%
    06:00 -12°C° 0.1 mm 3 mps 744 mmHg 95%
    07:00 -12°C° 0.1 mm 3 mps 744 mmHg 96%
    08:00 -12°C° 0 mm 2 mps 744 mmHg 96%
    09:00 -13°C° 0 mm 2 mps 745 mmHg 96%
    10:00 -13°C° 0 mm 2 mps 745 mmHg 97%
    11:00 -13°C° 0 mm 2 mps 745 mmHg 96%
    12:00 -12°C° 0 mm 2 mps 745 mmHg 96%
    13:00 -12°C° 0 mm 3 mps 746 mmHg 95%
    14:00 -12°C° 0.2 mm 3 mps 746 mmHg 95%
    15:00 -10°C° 0.2 mm 3 mps 746 mmHg 95%
    16:00 -10°C° 0.2 mm 3 mps 747 mmHg 95%
    17:00 -10°C° 0.2 mm 3 mps 747 mmHg 94%
    18:00 -11°C° 0.2 mm 4 mps 747 mmHg 94%
    19:00 -12°C° 0.2 mm 4 mps 748 mmHg 94%
    20:00 -14°C° 0.1 mm 4 mps 748 mmHg 95%
    21:00 -14°C° 0.1 mm 4 mps 749 mmHg 95%
    22:00 -14°C° 0.1 mm 3 mps 749 mmHg 95%
    23:00 -15°C° 0 mm 3 mps 749 mmHg 96%
    Show more